ProjectID,Date,Electric Generation,Electric Utility Import,Facility Electric Load
,YYYY-MM-DD,kW,kW,kW
289,2015-12-01,0.0,,0.0
289,2015-12-02,0.0,,0.0
289,2015-12-03,0.0,,0.0
289,2015-12-04,0.0,,0.0
289,2015-12-05,0.0,,0.0
289,2015-12-06,0.0,,0.0
289,2015-12-07,0.0,,0.0
289,2015-12-08,111.75,,111.75
289,2015-12-09,49.43874999999999,,49.43874999999999
289,2015-12-10,115.49000000000002,,115.49000000000002
289,2015-12-11,85.11708333333331,,85.11708333333331
289,2015-12-12,72.36291666666666,,72.36291666666666
289,2015-12-13,82.31791666666668,,82.31791666666668
289,2015-12-14,47.2825,,47.2825
289,2015-12-15,123.64541666666668,,123.64541666666668
289,2015-12-16,132.65333333333336,,132.65333333333336
289,2015-12-17,7.414166666666666,,7.414166666666666
289,2015-12-18,36.17958333333333,,36.17958333333333
289,2015-12-19,116.06875000000001,,116.06875000000001
289,2015-12-20,130.02750000000003,,130.02750000000003
289,2015-12-21,56.15041666666667,,56.15041666666667
289,2015-12-22,14.060416666666661,,14.060416666666661
289,2015-12-23,12.63375,,12.63375
289,2015-12-24,25.974583333333328,,25.974583333333328
289,2015-12-25,26.215,,26.215
289,2015-12-26,48.32875000000001,,48.32875000000001
289,2015-12-27,24.1275,,24.1275
289,2015-12-28,90.68541666666668,,90.68541666666668
289,2015-12-29,17.438333333333333,,17.438333333333333
289,2015-12-30,21.745833333333326,,21.745833333333326
289,2015-12-31,36.09208333333333,,36.09208333333333
289,2016-01-01,60.469166666666666,,60.469166666666666
289,2016-01-02,104.70791666666666,,104.70791666666666
289,2016-01-03,134.69041666666666,,134.69041666666666
289,2016-01-04,140.1229166666667,,140.1229166666667
289,2016-01-05,146.06041666666673,,146.06041666666673
289,2016-01-06,142.95000000000002,,142.95000000000002
289,2016-01-07,101.20083333333334,,101.20083333333334
289,2016-01-08,91.06083333333335,,91.06083333333335
289,2016-01-09,24.05875,,24.05875
289,2016-01-10,58.26541666666666,,58.26541666666666
289,2016-01-11,156.5175,,156.5175
289,2016-01-12,75.54333333333334,,75.54333333333334
289,2016-01-13,158.79791666666665,,158.79791666666665
289,2016-01-14,98.01291666666668,,98.01291666666668
289,2016-01-15,101.03041666666671,,101.03041666666671
289,2016-01-16,90.51791666666666,,90.51791666666666
289,2016-01-17,27.123333333333335,,27.123333333333335
289,2016-01-18,153.49208333333337,,153.49208333333337
289,2016-01-19,170.45125,,170.45125
289,2016-01-20,147.48791666666665,,147.48791666666665
289,2016-01-21,163.63583333333335,,163.63583333333335
289,2016-01-22,90.6729166666667,,90.6729166666667
289,2016-01-23,2.5050000000000003,,2.5050000000000003
289,2016-01-24,43.32749999999999,,43.32749999999999
289,2016-01-25,35.14958333333333,,35.14958333333333
289,2016-01-26,34.92916666666665,,34.92916666666665
289,2016-01-27,56.080000000000005,,56.080000000000005
289,2016-01-28,92.99375000000002,,92.99375000000002
289,2016-01-29,47.30416666666665,,47.30416666666665
289,2016-01-30,121.50875,,121.50875
289,2016-01-31,126.34416666666668,,126.34416666666668
289,2016-02-01,107.71125000000002,,107.71125000000002
289,2016-02-02,181.08916666666673,,181.08916666666673
289,2016-02-03,17.60333333333333,,17.60333333333333
289,2016-02-04,79.24583333333334,,79.24583333333334
289,2016-02-05,24.748749999999998,,24.748749999999998
289,2016-02-06,142.42583333333332,,142.42583333333332
289,2016-02-07,150.18125,,150.18125
289,2016-02-08,57.447916666666664,,57.447916666666664
289,2016-02-09,68.51958333333333,,68.51958333333333
289,2016-02-10,126.38625,,126.38625
289,2016-02-11,176.7720833333334,,176.7720833333334
289,2016-02-12,175.50749999999996,,175.50749999999996
289,2016-02-13,198.00375,,198.00375
289,2016-02-14,234.1575,,234.1575
289,2016-02-15,24.162499999999998,,24.162499999999998
289,2016-02-16,26.412916666666664,,26.412916666666664
289,2016-02-17,48.365833333333335,,48.365833333333335
289,2016-02-18,238.8816666666667,,238.8816666666667
289,2016-02-19,150.335,,150.335
289,2016-02-20,156.43291666666667,,156.43291666666667
289,2016-02-21,99.07999999999998,,99.07999999999998
289,2016-02-22,231.35416666666666,,231.35416666666666
289,2016-02-23,28.283749999999994,,28.283749999999994
289,2016-02-24,23.569999999999997,,23.569999999999997
289,2016-02-25,89.25708333333334,,89.25708333333334
289,2016-02-26,250.15833333333333,,250.15833333333333
289,2016-02-27,257.33166666666665,,257.33166666666665
289,2016-02-28,249.77333333333334,,249.77333333333334
289,2016-02-29,142.0575,,142.0575
289,2016-03-01,250.69208333333336,,250.69208333333336
289,2016-03-02,249.11666666666665,,249.11666666666665
289,2016-03-03,224.16,,224.16
289,2016-03-04,15.43,,15.43
289,2016-03-05,226.86333333333334,,226.86333333333334
289,2016-03-06,203.8125,,203.8125
289,2016-03-07,264.6066666666667,,264.6066666666667
289,2016-03-08,239.12333333333333,,239.12333333333333
289,2016-03-09,251.64666666666665,,251.64666666666665
289,2016-03-10,186.68124999999998,,186.68124999999998
289,2016-03-11,202.43875000000003,,202.43875000000003
289,2016-03-12,249.59500000000003,,249.59500000000003
289,2016-03-13,115.58041666666668,,115.58041666666668
289,2016-03-14,34.72666666666666,,34.72666666666666
289,2016-03-15,101.83,,101.83
289,2016-03-16,243.85791666666668,,243.85791666666668
289,2016-03-17,213.88541666666666,,213.88541666666666
289,2016-03-18,239.73791666666668,,239.73791666666668
289,2016-03-19,187.75666666666666,,187.75666666666666
289,2016-03-20,186.4845833333333,,186.4845833333333
289,2016-03-21,279.08333333333337,,279.08333333333337
289,2016-03-22,310.4729166666666,,310.4729166666666
289,2016-03-23,267.81958333333324,,267.81958333333324
289,2016-03-24,237.58666666666667,,237.58666666666667
289,2016-03-25,155.1341666666667,,155.1341666666667
289,2016-03-26,282.3733333333333,,282.3733333333333
289,2016-03-27,180.2275,,180.2275
289,2016-03-28,101.47750000000002,,101.47750000000002
289,2016-03-29,260.32166666666666,,260.32166666666666
289,2016-03-30,257.25624999999997,,257.25624999999997
289,2016-03-31,180.42791666666665,,180.42791666666665
289,2016-04-01,174.95249999999996,,174.95249999999996
289,2016-04-02,98.79083333333334,,98.79083333333334
289,2016-04-03,306.02916666666664,,306.02916666666664
289,2016-04-04,39.13958333333332,,39.13958333333332
289,2016-04-05,354.12375,,354.12375
289,2016-04-06,333.045,,333.045
289,2016-04-07,148.52,,148.52
289,2016-04-08,195.18208333333337,,195.18208333333337
289,2016-04-09,88.64291666666668,,88.64291666666668
289,2016-04-10,362.3141666666666,,362.3141666666666
289,2016-04-11,224.13916666666663,,224.13916666666663
289,2016-04-12,156.76333333333335,,156.76333333333335
289,2016-04-13,365.16374999999994,,365.16374999999994
289,2016-04-14,354.8283333333333,,354.8283333333333
289,2016-04-15,356.3666666666666,,356.3666666666666
289,2016-04-16,361.1387499999999,,361.1387499999999
289,2016-04-17,355.8595833333334,,355.8595833333334
289,2016-04-18,347.43458333333336,,347.43458333333336
289,2016-04-19,332.1620833333333,,332.1620833333333
289,2016-04-20,362.17749999999995,,362.17749999999995
289,2016-04-21,339.195,,339.195
289,2016-04-22,268.67750000000007,,268.67750000000007
289,2016-04-23,191.17916666666665,,191.17916666666665
289,2016-04-24,359.6199999999999,,359.6199999999999
289,2016-04-25,306.6154166666667,,306.6154166666667
289,2016-04-26,234.62624999999994,,234.62624999999994
289,2016-04-27,197.71333333333337,,197.71333333333337
289,2016-04-28,197.61458333333337,,197.61458333333337
289,2016-04-29,181.40708333333336,,181.40708333333336
289,2016-04-30,324.15333333333336,,324.15333333333336
289,2016-05-01,66.46916666666665,,66.46916666666665
289,2016-05-02,101.53666666666668,,101.53666666666668
289,2016-05-03,66.34875,,66.34875
289,2016-05-04,79.61625,,79.61625
289,2016-05-05,133.7025,,133.7025
289,2016-05-06,73.24833333333333,,73.24833333333333
289,2016-05-07,117.95041666666667,,117.95041666666667
289,2016-05-08,265.2475,,265.2475
289,2016-05-09,319.17750000000007,,319.17750000000007
289,2016-05-10,201.81500000000003,,201.81500000000003
289,2016-05-11,347.22125,,347.22125
289,2016-05-12,372.5749999999999,,372.5749999999999
289,2016-05-13,75.91125000000001,,75.91125000000001
289,2016-05-14,293.6533333333333,,293.6533333333333
289,2016-05-15,274.53125,,274.53125
289,2016-05-16,376.0491666666666,,376.0491666666666
289,2016-05-17,149.94708333333332,,149.94708333333332
289,2016-05-18,279.375,,279.375
289,2016-05-19,303.6495833333334,,303.6495833333334
289,2016-05-20,365.22541666666666,,365.22541666666666
289,2016-05-21,116.78291666666667,,116.78291666666667
289,2016-05-22,191.69000000000003,,191.69000000000003
289,2016-05-23,351.14416666666665,,351.14416666666665
289,2016-05-24,189.49374999999995,,189.49374999999995
289,2016-05-25,366.0824999999999,,366.0824999999999
289,2016-05-26,349.5004166666667,,349.5004166666667
289,2016-05-27,292.80375,,292.80375
289,2016-05-28,352.1345833333333,,352.1345833333333
289,2016-05-29,353.7420833333333,,353.7420833333333
289,2016-05-30,197.52083333333334,,197.52083333333334
289,2016-05-31,325.80375,,325.80375
289,2016-06-01,370.79333333333324,,370.79333333333324
289,2016-06-02,342.7295833333333,,342.7295833333333
289,2016-06-03,135.16083333333333,,135.16083333333333
289,2016-06-04,273.40666666666664,,273.40666666666664
289,2016-06-05,105.38583333333332,,105.38583333333332
289,2016-06-06,357.6037499999998,,357.6037499999998
289,2016-06-07,288.84999999999997,,288.84999999999997
289,2016-06-08,141.5,,141.5
289,2016-06-09,309.5220833333333,,309.5220833333333
289,2016-06-10,358.2191666666667,,358.2191666666667
289,2016-06-11,213.91916666666668,,213.91916666666668
289,2016-06-12,291.0725,,291.0725
289,2016-06-13,279.9004166666667,,279.9004166666667
289,2016-06-14,389.9079166666666,,389.9079166666666
289,2016-06-15,380.6854166666665,,380.6854166666665
289,2016-06-16,125.73958333333333,,125.73958333333333
289,2016-06-17,357.6666666666667,,357.6666666666667
289,2016-06-18,362.19000000000005,,362.19000000000005
289,2016-06-19,371.94208333333336,,371.94208333333336
289,2016-06-20,344.86249999999995,,344.86249999999995
289,2016-06-21,302.30333333333334,,302.30333333333334
289,2016-06-22,340.75,,340.75
289,2016-06-23,164.32625,,164.32625
289,2016-06-24,361.6325,,361.6325
289,2016-06-25,375.88291666666663,,375.88291666666663
289,2016-06-26,357.4408333333333,,357.4408333333333
289,2016-06-27,330.6325,,330.6325
289,2016-06-28,133.88458333333335,,133.88458333333335
289,2016-06-29,314.55,,314.55
289,2016-06-30,358.4454166666665,,358.4454166666665
289,2016-07-01,247.80416666666667,,247.80416666666667
289,2016-07-02,350.57291666666674,,350.57291666666674
289,2016-07-03,259.53333333333336,,259.53333333333336
289,2016-07-04,329.31000000000006,,329.31000000000006
289,2016-07-05,233.98166666666668,,233.98166666666668
289,2016-07-06,313.23375000000004,,313.23375000000004
289,2016-07-07,271.48375000000004,,271.48375000000004
289,2016-07-08,286.7558333333333,,286.7558333333333
289,2016-07-09,79.06291666666668,,79.06291666666668
289,2016-07-10,271.4529166666667,,271.4529166666667
289,2016-07-11,311.1458333333333,,311.1458333333333
289,2016-07-12,321.9425,,321.9425
289,2016-07-13,220.64666666666668,,220.64666666666668
289,2016-07-14,251.90125,,251.90125
289,2016-07-15,253.17125,,253.17125
289,2016-07-16,265.7658333333333,,265.7658333333333
289,2016-07-17,220.12958333333333,,220.12958333333333
289,2016-07-18,198.91625,,198.91625
289,2016-07-19,258.21791666666667,,258.21791666666667
289,2016-07-20,328.6191666666667,,328.6191666666667
289,2016-07-21,334.10875,,334.10875
289,2016-07-22,326.7395833333333,,326.7395833333333
289,2016-07-23,356.3066666666667,,356.3066666666667
289,2016-07-24,335.0,,335.0
289,2016-07-25,226.44708333333335,,226.44708333333335
289,2016-07-26,352.3329166666668,,352.3329166666668
289,2016-07-27,324.60333333333335,,324.60333333333335
289,2016-07-28,282.1983333333333,,282.1983333333333
289,2016-07-29,260.26666666666665,,260.26666666666665
289,2016-07-30,213.75416666666663,,213.75416666666663
289,2016-07-31,170.375,,170.375
289,2016-08-01,186.45833333333334,,186.45833333333334
289,2016-08-02,159.31833333333333,,159.31833333333333
289,2016-08-03,368.145,,368.145
289,2016-08-04,348.16125000000005,,348.16125000000005
289,2016-08-05,257.25,,257.25
289,2016-08-06,210.37541666666667,,210.37541666666667
289,2016-08-07,344.46333333333337,,344.46333333333337
289,2016-08-08,260.1929166666667,,260.1929166666667
289,2016-08-09,336.995,,336.995
289,2016-08-10,159.635,,159.635
289,2016-08-11,224.60583333333332,,224.60583333333332
289,2016-08-12,275.5308333333333,,275.5308333333333
289,2016-08-13,287.6820833333333,,287.6820833333333
289,2016-08-14,293.5620833333333,,293.5620833333333
289,2016-08-15,268.74041666666665,,268.74041666666665
289,2016-08-16,240.4475,,240.4475
289,2016-08-17,298.9575,,298.9575
289,2016-08-18,174.02583333333334,,174.02583333333334
289,2016-08-19,242.34916666666666,,242.34916666666666
289,2016-08-20,303.6091666666667,,303.6091666666667
289,2016-08-21,208.5675,,208.5675
289,2016-08-22,323.9425,,323.9425
289,2016-08-23,320.8279166666667,,320.8279166666667
289,2016-08-24,309.76166666666666,,309.76166666666666
289,2016-08-25,244.645,,244.645
289,2016-08-26,261.1475,,261.1475
289,2016-08-27,290.4691666666667,,290.4691666666667
289,2016-08-28,300.15125,,300.15125
289,2016-08-29,290.26,,290.26
289,2016-08-30,298.92125000000004,,298.92125000000004
289,2016-08-31,223.20708333333334,,223.20708333333334
289,2016-09-01,125.25999999999999,,125.25999999999999
289,2016-09-02,255.63458333333335,,255.63458333333335
289,2016-09-03,195.67708333333334,,195.67708333333334
289,2016-09-04,295.3279166666667,,295.3279166666667
289,2016-09-05,194.16208333333336,,194.16208333333336
289,2016-09-06,119.19333333333334,,119.19333333333334
289,2016-09-07,154.7845833333333,,154.7845833333333
289,2016-09-08,256.765,,256.765
289,2016-09-09,180.59291666666664,,180.59291666666664
289,2016-09-10,210.14541666666665,,210.14541666666665
289,2016-09-11,225.81208333333333,,225.81208333333333
289,2016-09-12,282.9266666666667,,282.9266666666667
289,2016-09-13,248.26,,248.26
289,2016-09-14,256.8279166666667,,256.8279166666667
289,2016-09-15,276.7291666666667,,276.7291666666667
289,2016-09-16,270.5670833333333,,270.5670833333333
289,2016-09-17,255.59375,,255.59375
289,2016-09-18,151.14541666666665,,151.14541666666665
289,2016-09-19,47.26916666666665,,47.26916666666665
289,2016-09-20,186.83208333333332,,186.83208333333332
289,2016-09-21,198.63625,,198.63625
289,2016-09-22,256.6670833333333,,256.6670833333333
289,2016-09-23,244.95291666666665,,244.95291666666665
289,2016-09-24,169.15583333333333,,169.15583333333333
289,2016-09-25,264.8595833333333,,264.8595833333333
289,2016-09-26,212.50541666666666,,212.50541666666666
289,2016-09-27,184.5158333333333,,184.5158333333333
289,2016-09-28,111.39625,,111.39625
289,2016-09-29,43.28999999999999,,43.28999999999999
289,2016-09-30,52.88083333333335,,52.88083333333335
289,2016-10-01,45.594166666666666,,45.594166666666666
289,2016-10-02,68.19291666666668,,68.19291666666668
289,2016-10-03,137.84958333333336,,137.84958333333336
289,2016-10-04,8.558333333333334,,8.558333333333334
289,2016-10-05,0.0,,0.0
289,2016-10-06,0.0,,0.0
289,2016-10-07,153.69375000000002,,153.69375000000002
289,2016-10-08,59.89041666666666,,59.89041666666666
289,2016-10-09,37.90625,,37.90625
289,2016-10-10,250.61083333333337,,250.61083333333337
289,2016-10-11,0.010833333333333334,,0.010833333333333334
289,2016-10-12,59.344583333333354,,59.344583333333354
289,2016-10-13,126.73916666666666,,126.73916666666666
289,2016-10-14,225.52166666666668,,225.52166666666668
289,2016-10-15,219.72916666666666,,219.72916666666666
289,2016-10-16,173.64625,,173.64625
289,2016-10-17,169.34875,,169.34875
289,2016-10-18,191.4629166666667,,191.4629166666667
289,2016-10-19,162.345,,162.345
289,2016-10-20,87.52458333333333,,87.52458333333333
289,2016-10-21,75.73375,,75.73375
289,2016-10-22,43.77583333333334,,43.77583333333334
289,2016-10-23,192.95833333333334,,192.95833333333334
289,2016-10-24,158.25583333333336,,158.25583333333336
289,2016-10-25,102.06916666666666,,102.06916666666666
289,2016-10-26,193.69083333333333,,193.69083333333333
289,2016-10-27,20.522916666666667,,20.522916666666667
289,2016-10-28,155.71166666666667,,155.71166666666667
289,2016-10-29,150.50958333333332,,150.50958333333332
289,2016-10-30,148.22333333333333,,148.22333333333333
289,2016-10-31,190.64041666666665,,190.64041666666665
289,2016-11-01,173.86791666666662,,173.86791666666662
289,2016-11-02,162.34416666666667,,162.34416666666667
289,2016-11-03,69.72333333333331,,69.72333333333331
289,2016-11-04,157.05624999999998,,157.05624999999998
289,2016-11-05,171.16083333333333,,171.16083333333333
289,2016-11-06,163.67791666666668,,163.67791666666668
289,2016-11-07,171.57124999999996,,171.57124999999996
289,2016-11-08,161.82416666666668,,161.82416666666668
289,2016-11-09,24.02916666666667,,24.02916666666667
289,2016-11-10,165.3220833333333,,165.3220833333333
289,2016-11-11,157.96291666666667,,157.96291666666667
289,2016-11-12,167.48875,,167.48875
289,2016-11-13,151.72375,,151.72375
289,2016-11-14,140.44291666666666,,140.44291666666666
289,2016-11-15,30.637083333333333,,30.637083333333333
289,2016-11-16,142.82250000000002,,142.82250000000002
289,2016-11-17,148.53250000000003,,148.53250000000003
289,2016-11-18,147.005,,147.005
289,2016-11-19,144.04625000000001,,144.04625000000001
289,2016-11-20,59.5625,,59.5625
289,2016-11-21,51.48333333333332,,51.48333333333332
289,2016-11-22,104.71250000000002,,104.71250000000002
289,2016-11-23,130.4416666666667,,130.4416666666667
289,2016-11-24,37.58,,37.58
289,2016-11-25,52.38666666666668,,52.38666666666668
289,2016-11-26,67.13541666666667,,67.13541666666667
289,2016-11-27,111.77083333333333,,111.77083333333333
289,2016-11-28,118.9229166666667,,118.9229166666667
289,2016-11-29,7.2158333333333315,,7.2158333333333315
289,2016-11-30,18.795,,18.795
289,2016-12-01,106.56166666666665,,106.56166666666665
289,2016-12-02,127.09249999999997,,127.09249999999997
289,2016-12-03,119.09708333333333,,119.09708333333333
289,2016-12-04,128.38,,128.38
289,2016-12-05,110.27791666666668,,110.27791666666668
289,2016-12-06,55.50041666666669,,55.50041666666669
289,2016-12-07,35.25125,,35.25125
289,2016-12-08,59.94625000000001,,59.94625000000001
289,2016-12-09,118.33291666666666,,118.33291666666666
289,2016-12-10,100.46875,,100.46875
289,2016-12-11,61.56708333333332,,61.56708333333332
289,2016-12-12,35.11833333333333,,35.11833333333333
289,2016-12-13,100.36874999999999,,100.36874999999999
289,2016-12-14,126.33833333333332,,126.33833333333332
289,2016-12-15,85.84833333333336,,85.84833333333336
289,2016-12-16,119.9475,,119.9475
289,2016-12-17,0.0,,0.0
289,2016-12-18,0.0,,0.0
289,2016-12-19,126.4325,,126.4325
289,2016-12-20,133.19291666666666,,133.19291666666666
289,2016-12-21,75.75416666666666,,75.75416666666666
289,2016-12-22,0.0,,0.0
289,2016-12-23,118.83833333333332,,118.83833333333332
289,2016-12-24,26.650833333333335,,26.650833333333335
289,2016-12-25,130.8175,,130.8175
289,2016-12-26,27.932083333333335,,27.932083333333335
289,2016-12-27,72.55166666666666,,72.55166666666666
289,2016-12-28,55.017500000000005,,55.017500000000005
289,2016-12-29,11.30208333333333,,11.30208333333333
289,2016-12-30,94.69749999999999,,94.69749999999999
289,2016-12-31,103.28083333333332,,103.28083333333332
289,2017-01-01,0.0,,0.0
289,2017-01-02,19.869583333333335,,19.869583333333335
289,2017-01-03,15.660000000000002,,15.660000000000002
289,2017-01-04,0.0,,0.0
289,2017-01-05,0.0,,0.0
289,2017-01-06,26.995416666666667,,26.995416666666667
289,2017-01-07,6.479166666666667,,6.479166666666667
289,2017-01-08,28.49416666666667,,28.49416666666667
289,2017-01-09,67.91708333333334,,67.91708333333334
289,2017-01-10,64.78666666666668,,64.78666666666668
289,2017-01-11,97.89166666666667,,97.89166666666667
289,2017-01-12,108.36916666666666,,108.36916666666666
289,2017-01-13,140.41583333333332,,140.41583333333332
289,2017-01-14,67.01541666666667,,67.01541666666667
289,2017-01-15,85.10458333333334,,85.10458333333334
289,2017-01-16,150.88041666666666,,150.88041666666666
289,2017-01-17,18.921666666666667,,18.921666666666667
289,2017-01-18,21.807916666666667,,21.807916666666667
289,2017-01-19,121.96375,,121.96375
289,2017-01-20,48.61500000000001,,48.61500000000001
289,2017-01-21,45.885833333333345,,45.885833333333345
289,2017-01-22,36.718333333333334,,36.718333333333334
289,2017-01-23,14.233333333333334,,14.233333333333334
289,2017-01-24,19.46875,,19.46875
289,2017-01-25,162.63375,,162.63375
289,2017-01-26,91.96250000000002,,91.96250000000002
289,2017-01-27,89.115,,89.115
289,2017-01-28,69.40583333333335,,69.40583333333335
289,2017-01-29,156.65083333333334,,156.65083333333334
289,2017-01-30,134.63,,134.63
289,2017-01-31,26.00583333333333,,26.00583333333333
289,2017-02-01,90.25999999999999,,90.25999999999999
289,2017-02-02,130.07333333333332,,130.07333333333332
289,2017-02-03,127.89499999999998,,127.89499999999998
289,2017-02-04,197.09375,,197.09375
289,2017-02-05,92.47958333333332,,92.47958333333332
289,2017-02-06,185.69291666666666,,185.69291666666666
289,2017-02-07,29.915833333333335,,29.915833333333335
289,2017-02-08,0.0,,0.0
289,2017-02-09,2.15125,,2.15125
289,2017-02-10,50.17208333333334,,50.17208333333334
289,2017-02-11,0.0,,0.0
289,2017-02-12,9.34375,,9.34375
289,2017-02-13,67.00583333333333,,67.00583333333333
289,2017-02-14,148.76916666666668,,148.76916666666668
289,2017-02-15,128.67624999999998,,128.67624999999998
289,2017-02-16,214.385,,214.385
289,2017-02-17,223.75666666666666,,223.75666666666666
289,2017-02-18,198.41125,,198.41125
289,2017-02-19,168.84875,,168.84875
289,2017-02-20,223.21958333333336,,223.21958333333336
289,2017-02-21,0.0,,0.0
289,2017-02-22,119.19791666666669,,119.19791666666669
289,2017-02-23,121.735,,121.735
289,2017-02-24,173.4275,,173.4275
289,2017-02-25,200.02166666666665,,200.02166666666665
289,2017-02-26,197.83291666666665,,197.83291666666665
289,2017-02-27,185.48,,185.48
289,2017-02-28,185.14166666666665,,185.14166666666665
289,2017-03-01,75.80166666666666,,75.80166666666666
289,2017-03-02,266.42583333333334,,266.42583333333334
289,2017-03-03,242.16583333333335,,242.16583333333335
289,2017-03-04,208.09375,,208.09375
289,2017-03-05,287.8020833333333,,287.8020833333333
289,2017-03-06,253.635,,253.635
289,2017-03-07,75.04625,,75.04625
289,2017-03-08,228.18249999999998,,228.18249999999998
289,2017-03-09,269.9483333333333,,269.9483333333333
289,2017-03-10,0.0,,0.0
289,2017-03-11,91.27583333333332,,91.27583333333332
289,2017-03-12,214.78125,,214.78125
289,2017-03-13,276.86083333333335,,276.86083333333335
289,2017-03-14,2.6354166666666665,,2.6354166666666665
289,2017-03-15,12.9375,,12.9375
289,2017-03-16,32.05708333333333,,32.05708333333333
289,2017-03-17,70.91166666666668,,70.91166666666668
289,2017-03-18,18.874583333333334,,18.874583333333334
289,2017-03-19,211.22416666666666,,211.22416666666666
289,2017-03-20,280.3075,,280.3075
289,2017-03-21,226.68333333333337,,226.68333333333337
289,2017-03-22,322.1979166666667,,322.1979166666667
289,2017-03-23,317.9941666666667,,317.9941666666667
289,2017-03-24,151.9,,151.9
289,2017-03-25,86.43791666666665,,86.43791666666665
289,2017-03-26,60.00541666666667,,60.00541666666667
289,2017-03-27,114.55125,,114.55125
289,2017-03-28,0.0,,0.0
289,2017-03-29,283.3129166666667,,283.3129166666667
289,2017-03-30,230.25625000000002,,230.25625000000002
289,2017-03-31,25.848333333333333,,25.848333333333333
289,2017-04-01,0.0,,0.0
289,2017-04-02,325.25,,325.25
289,2017-04-03,0.0,,0.0